This is the latest recevied weather packets stored in our database for station/object OK3MS-5. If no packets are shown the sender has not sent any weather packets the latest 10 day(s).
| Time | Temp. | Humidity | Pressure | Rain* | Wind** | Luminosity | Snow |
|---|---|---|---|---|---|---|---|
| 1787896502 | 19.44° C | 67% | 1012.7 hPa | 0 mm | - | 84 W/m² | - |
| 1787896203 | 19.44° C | 67% | 1012.3 hPa | 0 mm | - | 83 W/m² | - |
| 1787895902 | 20° C | 67% | 1012.3 hPa | 0 mm | - | 83 W/m² | - |
| 1787895603 | 19.44° C | 67% | 1012.4 hPa | 0 mm | - | 89 W/m² | - |
| 1787895304 | 19.44° C | 67% | 1012.5 hPa | 0 mm | - | 100 W/m² | - |
| 1787895007 | 19.44° C | 67% | 1012.5 hPa | 0 mm | - | 103 W/m² | - |
| 1787894703 | 19.44° C | 68% | 1012.4 hPa | 0 mm | - | 98 W/m² | - |
| 1787894402 | 19.44° C | 69% | 1012.4 hPa | 0 mm | - | 86 W/m² | - |
| 1787894102 | 19.44° C | 69% | 1012.3 hPa | 0 mm | - | 71 W/m² | - |
| 1787893803 | 19.44° C | 69% | 1012.2 hPa | 0 mm | - | 57 W/m² | - |
| 1787893504 | 19.44° C | 70% | 1012.3 hPa | 0 mm | - | 42 W/m² | - |
| 1787893202 | 19.44° C | 69% | 1012.4 hPa | 0 mm | - | 33 W/m² | - |
| 1787892903 | 19.44° C | 70% | 1012.6 hPa | 0 mm | - | 27 W/m² | - |
| 1787892607 | 19.44° C | 70% | 1012.5 hPa | 0 mm | - | 21 W/m² | - |
| 1787892304 | 19.44° C | 69% | 1012.5 hPa | 0 mm | - | 17 W/m² | - |
| 1787892004 | 19.44° C | 69% | 1012.4 hPa | 0 mm | - | 14 W/m² | - |
| 1787891707 | 19.44° C | 69% | 1012.3 hPa | 0 mm | - | 11 W/m² | - |
| 1787891403 | 19.44° C | 69% | 1012.3 hPa | 0 mm | - | 8 W/m² | - |
| 1787891105 | 19.44° C | 69% | 1012.3 hPa | 0 mm | - | 6 W/m² | - |
| 1787890803 | 19.44° C | 69% | 1012.3 hPa | 0 mm | - | 4 W/m² | - |
| 1787890503 | 19.44° C | 69% | 1012.4 hPa | 0 mm | - | 3 W/m² | - |
| 1787890204 | 19.44° C | 70% | 1012.4 hPa | 0 mm | - | 2 W/m² | - |
| 1787889904 | 19.44° C | 70% | 1012.5 hPa | 0 mm | - | 2 W/m² | - |
| 1787889607 | 19.44° C | 69% | 1012.5 hPa | 0 mm | - | 1 W/m² | - |
| 1787889302 | 19.44° C | 69% | 1012.6 hPa | 0 mm | - | 0 W/m² | - |
* Rain latest hour (hover to see other rain measurements)
** Current wind speed in m/s (hover to see current wind gust speed)